[[{"header":{"parameterUnit":"m.s-1","parameterCategory":1,"la1":30.2991,"la2":30.254,"lo1":-89.0895,"lo2":-89.0444,"dy":0.0017,"dx":0.0017,"nx":28,"ny":28,"refTime":"2023-10-08T21:00:00:Z","depth":0,"parameterNumber":2,"parameterNumberName":"U-component_of_WINDS"},"data":[0,0,0,0,0,0,0,0,0,0,0,0,0,0,0,0,0,0,0,0,0,0,0,0,0,0,0,0,0,0,0,0,0,0,0,0,0,0,0,0,0,0,0,0,0,0,0,0,0,0,0,0,0,0,0,0,0,0,-0.2113,-0.2113,0,-0.2104,-0.2104,-0.2104,-0.2057,-0.2056,-0.2055,-0.2054,-0.2047,-0.2048,-0.2049,0,0,0,0,0,0,0,0,0,0,0,0,0,-0.2088,-0.2089,-0.2113,-0.2113,-0.2112,-0.2104,-0.2104,-0.2104,-0.2058,-0.2056,-0.2055,-0.2054,-0.2047,-0.2048,-0.2049,0,0,0,0,0,0,0,0,0,0,0,0,0,-0.2092,-0.2089,-0.2113,-0.2088,-0.2086,-0.2104,-0.2104,-0.2104,-0.2058,-0.2056,-0.2054,-0.2053,-0.2046,-0.2048,-0.2049,-0.2091,0,0,-0.2053,-0.2053,0,0,0,0,0,0,0,0,-0.2091,-0.2092,-0.2092,-0.209,-0.2087,-0.208,-0.2093,-0.21,-0.2058,-0.2069,-0.2054,-0.2052,-0.2059,-0.206,-0.2062,-0.209,-0.209,-0.2053,-0.2054,-0.2054,-0.2055,0,0,0,0,0,0,0,-0.2091,-0.2093,-0.2109,-0.2092,-0.2089,-0.2078,-0.2076,-0.2094,-0.2074,-0.2068,-0.2064,-0.2064,-0.2058,-0.2061,-0.2061,-0.209,-0.2053,-0.2054,-0.2055,-0.2055,-0.2153,-0.2154,0,0,0,0,0,0,-0.2094,-0.2093,-0.211,-0.2109,-0.2085,-0.208,-0.2078,-0.2084,-0.2073,-0.207,-0.2065,-0.2062,-0.2059,-0.206,-0.2061,-0.211,-0.2054,-0.2055,-0.2056,-0.2151,-0.2153,-0.2155,0,0,0,0,0,0,-0.2094,-0.2096,-0.211,-0.21,-0.2101,-0.2082,-0.2089,-0.2085,-0.2088,-0.2071,-0.2068,-0.2072,-0.2058,-0.2059,-0.2084,-0.2109,-0.2056,-0.2057,-0.2149,-0.2152,-0.2154,-0.2208,0,0,0,0,0,0,-0.2094,-0.2096,-0.2112,-0.2101,-0.2102,-0.2133,-0.2091,-0.2086,-0.209,-0.2085,-0.2077,-0.2074,-0.2057,-0.2082,-0.2085,-0.211,-0.2058,-0.2147,-0.215,-0.2153,-0.2204,-0.2212,-0.2219,0,0,0,0,0,-0.2093,-0.2128,-0.2113,-0.2116,-0.2121,-0.2135,-0.2135,-0.2115,-0.2092,-0.2108,-0.2097,-0.2074,-0.2105,-0.2085,-0.2088,-0.2113,-0.2145,-0.2149,-0.2153,-0.22,-0.2211,-0.2219,0,0,0,0,0,0,-0.2144,-0.2126,-0.211,-0.2142,-0.214,-0.2127,-0.2146,-0.2126,-0.2131,-0.2126,-0.21,-0.2099,-0.2128,-0.2122,-0.21,-0.2153,-0.2121,-0.2126,-0.2156,-0.2166,-0.2173,-0.2175,-0.2059,0,0,0,0,0,-0.2158,-0.2171,-0.2155,-0.2185,-0.2185,-0.2166,-0.2171,-0.2155,-0.2152,-0.2151,-0.2142,-0.2141,-0.215,-0.2157,-0.2165,-0.2202,-0.22,-0.2221,-0.2229,-0.2235,-0.224,-0.226,-0.227,-0.2168,-0.2168,-0.2168,0,0,-0.219,-0.2181,-0.2191,-0.2195,-0.2192,-0.2205,-0.2165,-0.2182,-0.2192,-0.2154,-0.2177,-0.217,-0.2167,-0.2198,-0.2211,-0.2195,-0.2267,-0.224,-0.2246,-0.2247,-0.2265,-0.2275,-0.2284,-0.2171,-0.2171,-0.217,0,0,-0.2254,-0.2248,-0.2273,-0.227,-0.2265,-0.2252,-0.2258,-0.2248,-0.2242,-0.2264,-0.2236,-0.2247,-0.2264,-0.2263,-0.2265,-0.2327,-0.2306,-0.233,-0.2371,-0.2391,-0.2399,-0.2406,-0.2429,-0.2438,-0.2335,-0.2335,-0.2335,0,-0.2293,-0.2313,-0.2288,-0.2307,-0.2309,-0.2275,-0.23,-0.2298,-0.2297,-0.2299,-0.228,-0.2301,-0.2296,-0.2326,-0.2342,-0.2344,-0.235,-0.2332,-0.24,-0.2406,-0.2413,-0.2435,-0.2444,-0.2338,-0.2338,-0.2337,-0.2337,0,-0.2362,-0.2376,-0.2396,-0.2395,-0.24,-0.2422,-0.2401,-0.2408,-0.2392,-0.2381,-0.2404,-0.2397,-0.2403,-0.2408,-0.2392,-0.2437,-0.2427,-0.2404,-0.2371,-0.2426,-0.2446,-0.2454,-0.2343,-0.2341,-0.2341,-0.234,0,0,-0.246,-0.2444,-0.2452,-0.2451,-0.2443,-0.2453,-0.2473,-0.2478,-0.2486,-0.2485,-0.2502,-0.2516,-0.2495,-0.2497,-0.248,-0.2497,-0.2548,-0.2472,-0.2472,-0.2488,-0.2598,-0.2617,-0.2627,-0.2533,-0.2535,-0.2536,-0.2599,0,-0.2523,-0.2556,-0.2534,-0.2571,-0.2583,-0.255,-0.2567,-0.2564,-0.2554,-0.2563,-0.2552,-0.2563,-0.2533,-0.2534,-0.255,-0.2539,-0.257,-0.2534,-0.255,-0.2551,-0.2554,-0.2637,-0.2657,-0.2717,-0.2607,-0.2608,-0.2609,0,-0.2601,-0.2603,-0.2641,-0.263,-0.2634,-0.265,-0.2653,-0.2662,-0.2658,-0.2649,-0.2651,-0.263,-0.2649,-0.2615,-0.2641,-0.2617,-0.2622,-0.2617,-0.2619,-0.2621,-0.2585,-0.2644,-0.2735,-0.2745,-0.2621,-0.262,-0.2619,0,-0.267,-0.2683,-0.2707,-0.2707,-0.2694,-0.2706,-0.2702,-0.2695,-0.27,-0.2702,-0.2705,-0.271,-0.2713,-0.2717,-0.2698,-0.2675,-0.2727,-0.2691,-0.2721,-0.2722,-0.2736,-0.2735,-0.2831,-0.2736,-0.2735,-0.2735,-0.2735,0,-0.2743,-0.2768,-0.2738,-0.2754,-0.278,-0.2754,-0.2782,-0.2774,-0.2768,-0.2782,-0.2752,-0.2765,-0.2738,-0.2749,-0.2733,-0.2758,-0.2759,-0.2754,-0.275,-0.2757,-0.2758,-0.2762,-0.2758,-0.2738,-0.2737,-0.2737,-0.2736,0,-0.2827,-0.2807,-0.2832,-0.2817,-0.2814,-0.2835,-0.2822,-0.2836,-0.2823,-0.284,-0.2843,-0.2823,-0.2834,-0.2814,-0.2823,-0.2812,-0.2847,-0.2836,-0.2849,-0.2846,-0.2878,-0.2876,-0.2981,-0.2994,-0.2889,-0.289,-0.2891,0,-0.2876,-0.2894,-0.2881,-0.2888,-0.2884,-0.2895,-0.2899,-0.2874,-0.288,-0.2876,-0.289,-0.2898,-0.2904,-0.2923,-0.2909,-0.2916,-0.2905,-0.2941,-0.2906,-0.2914,-0.2908,-0.2908,-0.291,-0.295,-0.2951,-0.2952,-0.2953,0,-0.2965,-0.2954,-0.2961,-0.2965,-0.2971,-0.2972,-0.2972,-0.2979,-0.2952,-0.296,-0.2971,-0.2975,-0.2983,-0.2992,-0.2995,-0.299,-0.2968,-0.2964,-0.2971,-0.298,-0.2988,-0.2986,-0.2871,-0.2962,-0.2961,-0.296,-0.296,-0.296,-0.3034,-0.3049,-0.3042,-0.3051,-0.3047,-0.3048,-0.306,-0.3048,-0.3056,-0.3061,-0.3045,-0.3059,-0.3054,-0.3055,-0.3053,-0.3064,-0.3048,-0.3059,-0.3062,-0.3065,-0.3071,-0.2984,-0.3064,-0.3064,-0.3064,-0.3064,-0.3063,0,-0.3124,-0.3117,-0.3125,-0.3125,-0.3132,-0.3109,-0.3107,-0.3115,-0.3127,-0.3124,-0.3129,-0.3142,-0.315,-0.3137,-0.3143,-0.3154,-0.3144,-0.3157,-0.3157,-0.3156,-0.3084,-0.3078,-0.3165,-0.3165,-0.3165,-0.3165,-0.3165,-0.3165,-0.3171,-0.3195,-0.3184,-0.3206,-0.3199,-0.3213,-0.3214,-0.3214,-0.3211,-0.3226,-0.3232,-0.3223,-0.3216,-0.3221,-0.3228,-0.3223,-0.3228,-0.3245,-0.3237,-0.3171,-0.3161,-0.3152,-0.3146,-0.3245,-0.3246,-0.3308,-0.3309,-0.331]},{"header":{"parameterUnit":"m.s-1","parameterCategory":1,"la1":30.2991,"la2":30.254,"lo1":-89.0895,"lo2":-89.0444,"dy":0.0017,"dx":0.0017,"nx":28,"ny":28,"refTime":"2023-10-08T21:00:00:Z","depth":0,"parameterNumber":3,"parameterNumberName":"V-component_of_WINDS"},"data":[0,0,0,0,0,0,0,0,0,0,0,0,0,0,0,0,0,0,0,0,0,0,0,0,0,0,0,0,0,0,0,0,0,0,0,0,0,0,0,0,0,0,0,0,0,0,0,0,0,0,0,0,0,0,0,0,0,0,-1.2736,-1.2736,0,-1.2774,-1.2775,-1.2775,-1.2768,-1.2767,-1.2767,-1.2766,-1.2805,-1.2807,-1.2809,0,0,0,0,0,0,0,0,0,0,0,0,0,-1.2656,-1.2658,-1.2735,-1.2736,-1.2736,-1.2774,-1.2775,-1.2775,-1.2768,-1.2767,-1.2766,-1.2766,-1.2805,-1.2807,-1.2809,0,0,0,0,0,0,0,0,0,0,0,0,0,-1.2693,-1.2658,-1.2735,-1.2737,-1.2738,-1.2774,-1.2775,-1.2775,-1.2768,-1.2767,-1.2766,-1.2765,-1.2804,-1.2807,-1.2809,-1.2845,0,0,-1.2817,-1.2818,0,0,0,0,0,0,0,0,-1.269,-1.2695,-1.2737,-1.2737,-1.2738,-1.2765,-1.2761,-1.2799,-1.2768,-1.2757,-1.2766,-1.2765,-1.2793,-1.2796,-1.2806,-1.2847,-1.2849,-1.2817,-1.2819,-1.282,-1.282,0,0,0,0,0,0,0,-1.2688,-1.2694,-1.2751,-1.2737,-1.2738,-1.2737,-1.2741,-1.2768,-1.278,-1.2758,-1.2757,-1.2762,-1.2793,-1.2803,-1.2807,-1.2849,-1.2817,-1.2819,-1.2821,-1.2822,-1.2926,-1.2927,0,0,0,0,0,0,-1.2685,-1.2692,-1.275,-1.2752,-1.2711,-1.2739,-1.2743,-1.2757,-1.278,-1.2782,-1.2763,-1.2761,-1.2799,-1.2804,-1.2808,-1.2854,-1.282,-1.2822,-1.2823,-1.2925,-1.2926,-1.2927,0,0,0,0,0,0,-1.2683,-1.269,-1.2748,-1.2722,-1.2729,-1.2741,-1.2757,-1.2759,-1.2769,-1.2784,-1.2786,-1.2771,-1.2799,-1.2804,-1.2837,-1.2856,-1.2823,-1.2825,-1.2923,-1.2925,-1.2927,-1.2946,0,0,0,0,0,0,-1.2681,-1.2689,-1.2703,-1.2722,-1.273,-1.2776,-1.2758,-1.276,-1.2774,-1.2772,-1.2792,-1.2794,-1.2798,-1.2833,-1.2839,-1.2859,-1.2827,-1.2921,-1.2924,-1.2926,-1.2944,-1.2949,-1.2952,0,0,0,0,0,-1.2678,-1.2706,-1.2704,-1.2711,-1.2748,-1.2777,-1.2782,-1.2786,-1.2775,-1.2789,-1.2799,-1.2794,-1.2852,-1.2836,-1.2843,-1.2864,-1.292,-1.2923,-1.2926,-1.2942,-1.2948,-1.2952,0,0,0,0,0,0,-1.2689,-1.2709,-1.2706,-1.2741,-1.2758,-1.2776,-1.2794,-1.2791,-1.2811,-1.2809,-1.2813,-1.2818,-1.2851,-1.286,-1.2842,-1.2901,-1.2885,-1.2889,-1.2895,-1.29,-1.2904,-1.2902,-1.283,0,0,0,0,0,-1.2695,-1.2717,-1.2733,-1.2763,-1.2771,-1.2781,-1.2794,-1.2796,-1.2813,-1.282,-1.2832,-1.2848,-1.2871,-1.2885,-1.2906,-1.2944,-1.295,-1.2962,-1.2966,-1.297,-1.2974,-1.2998,-1.3004,-1.2937,-1.2936,-1.2936,0,0,-1.2709,-1.2722,-1.2736,-1.2766,-1.2778,-1.2802,-1.2787,-1.2812,-1.283,-1.2823,-1.2856,-1.2865,-1.2884,-1.292,-1.2937,-1.2929,-1.2994,-1.2973,-1.2976,-1.2978,-1.3001,-1.3007,-1.3013,-1.2938,-1.2938,-1.2938,0,0,-1.2746,-1.2758,-1.2785,-1.2799,-1.2818,-1.2825,-1.2832,-1.2851,-1.2857,-1.2889,-1.2886,-1.2907,-1.2944,-1.2959,-1.2971,-1.3016,-1.3013,-1.3023,-1.3045,-1.3068,-1.3074,-1.3079,-1.3097,-1.3103,-1.3026,-1.3026,-1.3026,0,-1.2761,-1.2796,-1.2799,-1.2826,-1.284,-1.2835,-1.2864,-1.2876,-1.2902,-1.2912,-1.2903,-1.2952,-1.2964,-1.3005,-1.3016,-1.3025,-1.3034,-1.3021,-1.3073,-1.3077,-1.3082,-1.31,-1.3107,-1.3028,-1.3028,-1.3027,-1.3027,0,-1.2814,-1.2839,-1.2858,-1.2885,-1.2901,-1.2928,-1.2936,-1.2952,-1.2952,-1.296,-1.2994,-1.3009,-1.3034,-1.3043,-1.3044,-1.3085,-1.308,-1.3071,-1.3055,-1.309,-1.3107,-1.3113,-1.303,-1.3029,-1.3029,-1.3028,0,0,-1.286,-1.2889,-1.2896,-1.2909,-1.2931,-1.2951,-1.2978,-1.3003,-1.3018,-1.3036,-1.306,-1.3093,-1.3086,-1.31,-1.3102,-1.3121,-1.3159,-1.3111,-1.3111,-1.3122,-1.3209,-1.3218,-1.3225,-1.3156,-1.3158,-1.3159,-1.3209,0,-1.2902,-1.2951,-1.2955,-1.3,-1.3024,-1.3021,-1.3045,-1.3061,-1.307,-1.3092,-1.31,-1.3125,-1.3112,-1.3121,-1.314,-1.3151,-1.3177,-1.3147,-1.3181,-1.3182,-1.3179,-1.3234,-1.3242,-1.3289,-1.3215,-1.3216,-1.3217,0,-1.2957,-1.2978,-1.3025,-1.3047,-1.3057,-1.3079,-1.3104,-1.3124,-1.3143,-1.3148,-1.3164,-1.3164,-1.3193,-1.3174,-1.3216,-1.3195,-1.3209,-1.3217,-1.3219,-1.3224,-1.3204,-1.3244,-1.3303,-1.3312,-1.3227,-1.3226,-1.3225,0,-1.299,-1.3029,-1.3064,-1.3074,-1.3099,-1.3115,-1.3126,-1.3144,-1.316,-1.3181,-1.3192,-1.3216,-1.323,-1.3249,-1.3255,-1.324,-1.3298,-1.3279,-1.3304,-1.3304,-1.3318,-1.3318,-1.3384,-1.3323,-1.3323,-1.3322,-1.3322,0,-1.3037,-1.3067,-1.3079,-1.31,-1.3134,-1.3139,-1.3172,-1.3182,-1.3199,-1.3223,-1.322,-1.3243,-1.3249,-1.3273,-1.3278,-1.3313,-1.3318,-1.3324,-1.3326,-1.3326,-1.3326,-1.3338,-1.3336,-1.3324,-1.3324,-1.3324,-1.3323,0,-1.308,-1.3089,-1.3127,-1.3147,-1.3153,-1.3178,-1.3195,-1.3217,-1.3224,-1.3255,-1.3262,-1.3275,-1.3303,-1.3311,-1.3344,-1.3348,-1.3391,-1.3387,-1.3385,-1.3386,-1.3412,-1.3411,-1.349,-1.3502,-1.343,-1.3431,-1.3431,0,-1.3112,-1.3135,-1.3158,-1.3175,-1.3187,-1.3212,-1.3229,-1.3234,-1.3252,-1.3277,-1.3295,-1.3323,-1.3346,-1.3391,-1.3404,-1.343,-1.3429,-1.3455,-1.3433,-1.3434,-1.3434,-1.3433,-1.3437,-1.3461,-1.3461,-1.3462,-1.3462,0,-1.3167,-1.3171,-1.3195,-1.3221,-1.3241,-1.3262,-1.3282,-1.3295,-1.3303,-1.3323,-1.3353,-1.337,-1.3405,-1.3434,-1.3461,-1.3472,-1.347,-1.3469,-1.3477,-1.3479,-1.3478,-1.3482,-1.3399,-1.3468,-1.3467,-1.3467,-1.3467,-1.3466,-1.3207,-1.3229,-1.325,-1.3277,-1.3293,-1.3312,-1.3334,-1.3345,-1.337,-1.3399,-1.3401,-1.3433,-1.3453,-1.3489,-1.3502,-1.3529,-1.3521,-1.3531,-1.3535,-1.3538,-1.3542,-1.3471,-1.3533,-1.3533,-1.3533,-1.3532,-1.3532,0,-1.3266,-1.3279,-1.3304,-1.3333,-1.3355,-1.335,-1.3372,-1.3391,-1.342,-1.3439,-1.3463,-1.3497,-1.3525,-1.354,-1.3569,-1.3587,-1.3587,-1.3594,-1.3595,-1.3598,-1.3546,-1.3537,-1.3594,-1.3594,-1.3594,-1.3594,-1.3594,-1.3594,-1.3299,-1.3336,-1.3343,-1.3388,-1.3401,-1.3434,-1.3447,-1.3465,-1.3481,-1.3521,-1.3544,-1.3554,-1.3572,-1.3602,-1.3628,-1.3631,-1.3643,-1.3653,-1.3656,-1.3607,-1.3601,-1.3595,-1.3588,-1.3654,-1.3654,-1.3707,-1.3707,-1.3707]}]]